Miami, FL

12:23 PM EDT on June 25, 2018 (GMT -0400)
Miami International

Weather History for KMIA - September, 2017

Change the Weather History Date:

Thursday, September 14, 2017

  Actual Average Record
Temperature  
Mean Temperature 86 °F 83 °F  
Max Temperature 92 °F 89 °F 94 °F (1987)
Min Temperature 80 °F 77 °F 67 °F (1939)
Degree Days  
Heating Degree Days 0 0  
Month to date heating degree days 0 0  
Since 1 July heating degree days 0 0  
Cooling Degree Days 21 18  
Month to date cooling degree days 251 254  
Year to date cooling degree days 3825 3329  
Growing Degree Days 36 (Base 50)    
Moisture  
Dew Point 75 °F    
Average Humidity 72    
Maximum Humidity 91    
Minimum Humidity 52    
Precipitation  
Precipitation 0.00 in 0.33 in 1.79 in (1993)
Month to date precipitation 3.26 4.49  
Year to date precipitation 53.73 44.89  
Snow  
Snow 0.00 in - - ()
Month to date snowfall 0.0  
Since 1 July snowfall 0.0  
Since 1 September snowfall 0.0  
Snow Depth 0.00 in    
Sea Level Pressure  
Sea Level Pressure 29.97 in    
Wind  
Wind Speed 5 mph (East)    
Max Wind Speed 15 mph    
Max Gust Speed 18 mph    
Visibility 10 miles    
Events      
T = Trace of Precipitation, MM = Missing Value Source: NWS Daily Summary

Daily Weather History Graph

Daily Weather History Graph

Search for Another Location

Airport or City:

Astronomy

Sep. 14, 2017 Rise Set
Actual Time 7:06 AM EDT 7:26 PM EDT
Civil Twilight 6:43 AM EDT 7:49 PM EDT
Nautical Twilight 6:16 AM EDT 8:16 PM EDT
Astronomical Twilight 5:49 AM EDT 8:43 PM EDT
Moon 1:27 AM EDT (9/14) 3:16 PM EDT (9/14)
Length of Visible Light 13h 05m
Length of Day
12h 19m
Waning Crescent, 34% of the Moon is Illuminated
Sep 14
Waning Crescent
Sep 20
New
Sep 27
First Quarter
Oct 5
Full
Oct 12
Last Quarter

Hourly Weather History & Observations

Time (EDT) Temp. Heat Index Dew Point Humidity Pressure Visibility Wind Dir Wind Speed Gust Speed Precip Events Conditions
12:53 AM 82.0 °F 90.2 °F 77.0 °F 85% 29.96 in 10.0 mi SSE 3.5 mph - N/A   Scattered Clouds
1:53 AM 82.0 °F 90.2 °F 77.0 °F 85% 29.96 in 10.0 mi Calm Calm - N/A   Scattered Clouds
2:53 AM 82.0 °F 91.0 °F 78.1 °F 88% 29.94 in 10.0 mi Calm Calm - N/A   Scattered Clouds
3:53 AM 80.1 °F 85.8 °F 77.0 °F 90% 29.94 in 10.0 mi Calm Calm - N/A   Scattered Clouds
4:53 AM 80.1 °F 85.8 °F 77.0 °F 90% 29.94 in 10.0 mi Calm Calm - N/A   Scattered Clouds
5:53 AM 82.0 °F 90.2 °F 77.0 °F 85% 29.95 in 10.0 mi Calm Calm - N/A   Partly Cloudy
6:53 AM 81.0 °F 87.3 °F 75.9 °F 85% 29.96 in 10.0 mi Calm Calm - N/A   Partly Cloudy
7:53 AM 82.9 °F 92.8 °F 78.1 °F 85% 29.97 in 10.0 mi East 3.5 mph - N/A   Partly Cloudy
8:17 AM 84.0 °F 93.7 °F 77.0 °F 79% 29.97 in 10.0 mi ESE 5.8 mph - N/A   Scattered Clouds
8:53 AM 84.9 °F 94.1 °F 75.9 °F 74% 29.99 in 10.0 mi ESE 4.6 mph - N/A   Partly Cloudy
9:53 AM 87.1 °F 96.3 °F 75.0 °F 67% 30.00 in 10.0 mi Variable 3.5 mph - N/A   Partly Cloudy
10:53 AM 90.0 °F 97.9 °F 73.0 °F 57% 30.01 in 10.0 mi North 3.5 mph - N/A   Scattered Clouds
11:53 AM 90.0 °F 97.9 °F 73.0 °F 57% 30.01 in 10.0 mi ESE 4.6 mph - N/A   Scattered Clouds
12:53 PM 88.0 °F 96.5 °F 73.9 °F 63% 29.99 in 10.0 mi East 8.1 mph - N/A   Mostly Cloudy
1:53 PM 89.1 °F 98.0 °F 73.9 °F 61% 29.97 in 10.0 mi East 10.4 mph - N/A   Mostly Cloudy
2:53 PM 91.9 °F 101.3 °F 73.9 °F 55% 29.95 in 10.0 mi ENE 10.4 mph - N/A   Scattered Clouds
3:53 PM 91.0 °F 98.2 °F 72.0 °F 53% 29.93 in 10.0 mi East 10.4 mph - N/A   Scattered Clouds
4:53 PM 89.1 °F 97.0 °F 73.0 °F 59% 29.93 in 10.0 mi East 11.5 mph - N/A   Scattered Clouds
5:53 PM 88.0 °F 95.6 °F 73.0 °F 61% 29.93 in 10.0 mi East 11.5 mph - N/A   Scattered Clouds
6:53 PM 86.0 °F 93.0 °F 73.0 °F 65% 29.94 in 10.0 mi East 11.5 mph - N/A   Scattered Clouds
7:53 PM 84.0 °F 90.2 °F 73.0 °F 69% 29.95 in 10.0 mi ESE 10.4 mph - N/A   Mostly Cloudy
8:53 PM 84.0 °F 92.6 °F 75.9 °F 76% 29.99 in 10.0 mi ESE 5.8 mph - N/A   Scattered Clouds
9:53 PM 84.0 °F 91.9 °F 75.0 °F 74% 29.99 in 10.0 mi East 6.9 mph - N/A   Scattered Clouds
10:53 PM 82.9 °F 90.2 °F 75.0 °F 77% 30.00 in 10.0 mi East 6.9 mph - N/A   Clear
11:53 PM 82.9 °F 90.8 °F 75.9 °F 79% 30.00 in 10.0 mi East 5.8 mph - N/A   Partly Cloudy